TimeEDT,TemperatureF,Dew PointF,Humidity,Sea Level PressureIn,VisibilityMPH,Wind Direction,Wind SpeedMPH,Gust SpeedMPH,PrecipitationIn,Events,Conditions,WindDirDegrees,DateUTC
12:15 AM,68.7,67.1,95,30.04,7.0,SSW,6.9,-,N/A,,Overcast,200,2013-05-21 04:15:00
12:35 AM,68.5,67.1,95,30.04,7.0,South,5.8,-,N/A,,Overcast,190,2013-05-21 04:35:00
12:55 AM,68.4,66.6,94,30.04,7.0,South,6.9,-,N/A,,Overcast,190,2013-05-21 04:55:00
1:15 AM,68.4,66.4,93,30.04,10.0,SSW,8.1,-,N/A,,Overcast,200,2013-05-21 05:15:00
1:35 AM,68.4,66.2,93,30.03,10.0,SSW,5.8,-,N/A,,Overcast,200,2013-05-21 05:35:00
1:55 AM,68.2,66.2,93,30.03,7.0,South,4.6,-,N/A,,Overcast,190,2013-05-21 05:55:00
2:15 AM,68.2,66.2,93,30.04,7.0,South,4.6,-,N/A,,Overcast,190,2013-05-21 06:15:00
2:35 AM,68.2,66.2,93,30.03,7.0,South,5.8,-,N/A,,Overcast,190,2013-05-21 06:35:00
2:55 AM,68.0,66.2,94,30.03,7.0,South,5.8,-,N/A,,Overcast,190,2013-05-21 06:55:00
3:15 AM,68.0,66.2,94,30.03,7.0,South,5.8,-,N/A,,Overcast,180,2013-05-21 07:15:00
3:35 AM,68.0,66.2,94,30.02,7.0,SSW,4.6,-,N/A,,Overcast,200,2013-05-21 07:35:00
3:55 AM,67.8,66.0,94,30.02,7.0,South,3.5,-,N/A,,Overcast,180,2013-05-21 07:55:00
4:15 AM,67.6,65.8,94,30.02,5.0,SSW,3.5,-,N/A,,Overcast,200,2013-05-21 08:15:00
4:35 AM,67.6,66.2,95,30.03,5.0,SSW,3.5,-,N/A,,Overcast,200,2013-05-21 08:35:00
4:55 AM,67.6,66.2,95,30.02,5.0,South,4.6,-,N/A,,Overcast,190,2013-05-21 08:55:00
5:15 AM,67.6,66.2,95,30.03,5.0,SSW,6.9,-,N/A,,Overcast,210,2013-05-21 09:15:00
5:35 AM,67.6,65.8,94,30.03,5.0,SSW,5.8,-,N/A,,Overcast,200,2013-05-21 09:35:00
5:55 AM,67.5,65.7,94,30.04,5.0,SSW,4.6,-,N/A,,Overcast,210,2013-05-21 09:55:00
6:15 AM,67.5,65.8,95,30.05,5.0,SW,4.6,-,N/A,,Overcast,220,2013-05-21 10:15:00
6:35 AM,67.6,66.2,95,30.05,3.0,SSW,4.6,-,N/A,,Overcast,200,2013-05-21 10:35:00
6:55 AM,68.0,66.2,94,30.05,3.0,SSW,6.9,-,N/A,,Overcast,200,2013-05-21 10:55:00
7:15 AM,68.0,66.2,94,30.05,3.0,SSW,5.8,-,N/A,,Overcast,210,2013-05-21 11:15:00
7:35 AM,68.2,66.2,93,30.04,5.0,SSW,4.6,-,N/A,,Overcast,200,2013-05-21 11:35:00
7:55 AM,68.4,66.4,93,30.04,3.0,SSW,5.8,-,N/A,,Overcast,200,2013-05-21 11:55:00
8:15 AM,68.7,66.6,93,30.05,3.0,SSW,6.9,-,N/A,,Overcast,210,2013-05-21 12:15:00
8:35 AM,68.9,66.6,92,30.05,4.0,South,6.9,-,N/A,,Overcast,190,2013-05-21 12:35:00
8:55 AM,68.9,66.6,92,30.06,5.0,SSW,9.2,-,N/A,,Overcast,210,2013-05-21 12:55:00
9:15 AM,69.4,66.7,91,30.06,5.0,SSW,6.9,-,N/A,,Overcast,210,2013-05-21 13:15:00
9:35 AM,69.8,66.6,89,30.06,7.0,SSW,5.8,-,N/A,,Overcast,200,2013-05-21 13:35:00
9:55 AM,70.5,67.1,89,30.05,7.0,South,5.8,-,N/A,,Overcast,190,2013-05-21 13:55:00
10:15 AM,71.6,67.3,86,30.05,10.0,SSW,6.9,-,N/A,,Overcast,210,2013-05-21 14:15:00
10:35 AM,72.1,67.5,85,30.05,7.0,SW,9.2,-,N/A,,Overcast,230,2013-05-21 14:35:00
10:55 AM,73.2,67.1,81,30.05,10.0,SW,6.9,-,N/A,,Overcast,220,2013-05-21 14:55:00
11:15 AM,73.8,67.3,80,30.05,10.0,SW,8.1,-,N/A,,Overcast,220,2013-05-21 15:15:00
11:35 AM,73.6,67.3,81,30.06,10.0,SW,5.8,-,N/A,,Overcast,230,2013-05-21 15:35:00
11:55 AM,73.4,67.5,82,30.05,10.0,SW,4.6,-,N/A,,Overcast,230,2013-05-21 15:55:00
12:15 PM,72.9,67.5,83,30.05,10.0,SW,3.5,-,N/A,,Overcast,220,2013-05-21 16:15:00
12:35 PM,74.1,68.2,82,30.04,10.0,South,4.6,-,N/A,,Overcast,190,2013-05-21 16:35:00
12:55 PM,76.5,68.4,76,30.04,10.0,SW,4.6,-,N/A,,Mostly Cloudy,220,2013-05-21 16:55:00
1:15 PM,77.4,68.2,73,30.03,10.0,WSW,5.8,-,N/A,,Mostly Cloudy,240,2013-05-21 17:15:00
1:35 PM,78.1,68.0,71,30.02,10.0,SSW,6.9,-,N/A,,Mostly Cloudy,200,2013-05-21 17:35:00
1:55 PM,79.3,68.5,69,30.01,10.0,South,6.9,-,N/A,,Mostly Cloudy,190,2013-05-21 17:55:00
2:15 PM,79.2,67.1,66,30.01,10.0,SSW,8.1,-,N/A,,Mostly Cloudy,210,2013-05-21 18:15:00
2:35 PM,80.4,67.3,64,30.01,10.0,SW,6.9,-,N/A,,Mostly Cloudy,230,2013-05-21 18:35:00
2:55 PM,81.0,67.1,63,30.00,10.0,West,4.6,-,N/A,,Scattered Clouds,270,2013-05-21 18:55:00
3:15 PM,80.8,67.1,63,30.00,10.0,South,5.8,-,N/A,,Scattered Clouds,170,2013-05-21 19:15:00
3:35 PM,82.0,67.8,62,29.98,10.0,Calm,Calm,-,N/A,,Scattered Clouds,0,2013-05-21 19:35:00
3:55 PM,81.9,66.2,59,29.97,10.0,West,3.5,-,N/A,,Scattered Clouds,260,2013-05-21 19:55:00
4:15 PM,82.4,66.2,58,29.97,10.0,WSW,4.6,-,N/A,,Scattered Clouds,240,2013-05-21 20:15:00
4:35 PM,82.2,66.2,58,29.96,10.0,SSW,5.8,-,N/A,,Scattered Clouds,210,2013-05-21 20:35:00
4:55 PM,82.8,65.8,56,29.97,10.0,Calm,Calm,-,N/A,,Scattered Clouds,0,2013-05-21 20:55:00
5:15 PM,83.3,67.1,58,29.96,10.0,SSE,6.9,-,N/A,,Clear,160,2013-05-21 21:15:00
5:35 PM,82.6,66.6,58,29.97,10.0,South,5.8,-,N/A,,Scattered Clouds,180,2013-05-21 21:35:00
5:55 PM,80.4,66.4,62,29.97,10.0,SSE,3.5,-,N/A,,Mostly Cloudy,160,2013-05-21 21:55:00
6:15 PM,81.0,66.7,62,29.96,10.0,South,4.6,-,N/A,,Scattered Clouds,180,2013-05-21 22:15:00
6:35 PM,80.4,68.4,67,29.96,10.0,South,5.8,-,N/A,,Clear,170,2013-05-21 22:35:00
6:55 PM,79.7,68.4,68,29.96,10.0,South,8.1,-,N/A,,Clear,180,2013-05-21 22:55:00
7:15 PM,78.4,67.3,68,29.96,10.0,South,6.9,-,N/A,,Clear,180,2013-05-21 23:15:00
7:35 PM,77.2,66.6,70,29.96,10.0,South,10.4,-,N/A,,Clear,170,2013-05-21 23:35:00
7:55 PM,75.7,66.6,73,29.97,10.0,South,6.9,-,N/A,,Clear,170,2013-05-21 23:55:00
8:15 PM,74.5,67.1,78,29.96,10.0,South,6.9,-,N/A,,Clear,180,2013-05-22 00:15:00
8:35 PM,73.4,67.3,81,29.96,10.0,South,5.8,-,N/A,,Clear,180,2013-05-22 00:35:00
8:55 PM,72.7,67.5,84,29.96,10.0,South,5.8,-,N/A,,Clear,180,2013-05-22 00:55:00
9:15 PM,72.3,68.2,87,29.95,10.0,South,6.9,-,N/A,,Clear,170,2013-05-22 01:15:00
9:35 PM,71.6,68.0,88,29.97,10.0,South,5.8,-,N/A,,Clear,190,2013-05-22 01:35:00
9:55 PM,71.1,67.5,88,29.98,10.0,South,4.6,-,N/A,,Clear,180,2013-05-22 01:55:00
10:15 PM,70.7,67.3,89,29.98,10.0,South,10.4,-,N/A,,Clear,190,2013-05-22 02:15:00
10:35 PM,70.5,66.2,86,29.99,10.0,South,9.2,-,N/A,,Clear,190,2013-05-22 02:35:00
10:55 PM,70.2,66.2,87,29.99,10.0,South,9.2,-,N/A,,Clear,190,2013-05-22 02:55:00
11:15 PM,69.6,66.0,88,29.99,10.0,South,10.4,-,N/A,,Clear,190,2013-05-22 03:15:00
11:35 PM,69.3,66.2,90,29.99,10.0,SSW,10.4,-,N/A,,Clear,200,2013-05-22 03:35:00
11:55 PM,68.9,66.2,91,30.00,10.0,SSW,6.9,-,N/A,,Clear,200,2013-05-22 03:55:00